Location: Artiguedieu
(43.5000°N, 0.5454°E)
Time: 12:50:44
(UTC+00:00)

SR - Pass Details

Date: 11 August 2021
Orbit: 581 x 874 km, 66.7° (Epoch: 18 September)

Event Time Altitude Azimuth Distance (km) Brightness Sun altitude
Exits shadow 03:57:42 13° 222° (SW) 2,295 ? -10.6°
Maximum altitude 04:02:55 66° 304° (WNW) 894 ? -9.8°
Drops below altitude 10° 04:08:18 10° 26° (NNE) 2,334 ? -8.9°
Sets 04:10:39 0° 30° (NNE) 3,220 ? -8.6°
